sat.trackr.live / text

‹ back to catalog

STARLINK-32171

NORAD 60332 · 2024-136D

PAYLOAD ACTIVE UNKNOWN

§ Identity

Operator
Country
US
Launch date
2024-08-02
Launch site
AFETR
Launch vehicle
Mass (kg)
RCS (m²)

Purposes: comms

External: N2YO · Heavens-Above · Gunter

§ Orbital elements

Epoch: 2026-09-21T05:44:46.562784Z

Period
94.01 min
Inclination
53.1606°
Eccentricity
0.0001233
Mean motion
15.31703783 rev/d
Perigee alt
469.9 km
Apogee alt
471.6 km
Semi-major
6,848.9 km
B*
-6.7646e-5
RAAN
245.9841°
Arg perigee
76.2291°
Mean anomaly
283.8848°
Rev number
11,962

§ Raw data

STARLINK-321711 60332U 24136D   26264.23942781 -.00002464  00000+0 -67646-4 0  99962 60332  53.1606 245.9841 0001233  76.2291 283.8848 15.31703783119624

JSON: /api/v1/satellites/60332 · /tle

For live sub-satellite position, see the globe view (requires WebGL).

§ Visibility from observer

Set your observer location to see the next 7 days of passes ≥ 10°. The values pass through the URL so the page stays shareable.

No JS? Fill the form by hand. The geolocation button needs JavaScript.